Location: Chippewa Lake
(41.0698°N, 81.9010°W)
Time: 20:34:45
(UTC+00:00)

Meteor 1-28 Rocket - Pass Details

Date: 09 May 2021
Orbit: 504 x 521 km, 97.4° (Epoch: 16 June)

Event Time Altitude Azimuth Distance (km) Brightness Sun altitude
Exits shadow 07:39:02 30° 111° (ESE) 919 4.5 -23.6°
Maximum altitude 07:40:06 38° 73° (ENE) 788 4.4 -23.5°
Drops below altitude 10° 07:43:33 10° 4° (N) 1,726 6.6 -23.1°
Sets 07:45:44 0° 357° (N) 2,617 7.5 -22.9°
